Powrót do katalogu

COSMOS 1275 DEB

AktywnyPO
NORAD 12658·DEBRIS·🇷🇺 Russia

Wystrzelony Jun 4, 1981 z Plesetsk Cosmodrome

Loading…

Następne Przeloty (najbliższe 24 godziny)

TLE

ŚwieżeSource: Space-Track

Epoka: Sep 14, 2026, 10:48 UTC

1 12658U 81053N   26257.45058639  .00001740  00000-0  65487-3 0  9996
2 12658  82.9655  70.0196 0033605 162.4868 226.5475 14.30709017303003

Śledź COSMOS 1275 DEB w czasie rzeczywistym z AllMySat

Download on the App Store